Powrót do katalogu

THORAD AGENA D DEB

AktywnySSO
NORAD 42533·DEBRIS·🇺🇸 United States

Wystrzelony Apr 8, 1970 z Vandenberg Space Force Base

Loading…

Następne Przeloty (najbliższe 24 godziny)

TLE

ŚwieżeSource: Space-Track

Epoka: Sep 14, 2026, 14:18 UTC

1 42533U 70025SP  26257.59635843  .00001123  00000-0  90516-3 0  9997
2 42533  99.6541 178.0464 0136505  99.0554 262.6077 13.88417003646309

Śledź THORAD AGENA D DEB w czasie rzeczywistym z AllMySat

Download on the App Store